Location: Lugrin
(46.4033°N, 6.6674°E)
Time: 01:34:49
(UTC+00:00)

NOSS 2-2 (C) - Pass Details

Date: 18 September 2020
Orbit: 468 x 1740 km, 63.3° (Epoch: 19 October)

Event Time Altitude Azimuth Distance (km) Brightness Sun altitude
Rises 18:14:35 0° 189° (S) 2,521 6.7 -7.1°
Reaches altitude 10° 18:16:53 10° 176° (S) 1,622 5.6 -7.4°
Maximum altitude 18:19:50 26° 118° (ESE) 977 4.1 -7.9°
Drops below altitude 10° 18:22:58 10° 60° (ENE) 1,729 5.4 -8.5°
Sets 18:25:30 0° 48° (NE) 2,731 6.5 -8.9°
